Location: Lincoln
(40.8000°N, 96.6670°W)
Time: 06:40:01
(UTC-06:00)

Envisat - Visible Passes

Search period start: 29 January 2023 00:00
Search period end: 08 February 2023 00:00
Orbit: 763 x 765 km, 98.2° (Epoch: 29 January)

Date Brightness Start Highest point End Pass type
(mag) Time Alt. Az. Time Alt. Az. Time Alt. Az.
31 Jan 5.5 04:58:52 10° N 04:59:02 11° N 04:59:02 11° N visible
02 Feb 5.2 05:24:09 10° N 05:24:33 12° N 05:24:33 12° N visible
03 Feb 5.4 04:46:43 10° N 04:47:13 13° N 04:47:13 13° N visible
04 Feb 5.8 04:09:49 10° NNE 04:09:53 10° NNE 04:09:53 10° NNE visible
04 Feb 5.1 05:49:44 10° NNW 05:50:04 11° NNW 05:50:04 11° NNW visible
05 Feb 5.1 05:11:53 10° N 05:12:45 15° N 05:12:45 15° N visible
06 Feb 5.3 04:34:38 10° NNE 04:35:25 15° NNE 04:35:25 15° NNE visible
07 Feb 5.8 03:57:53 10° NNE 03:58:05 11° NNE 03:58:05 11° NNE visible
07 Feb 4.9 05:37:18 10° NNW 05:38:17 14° NNW 05:38:17 14° NNW visible
